Location: Jaworzyna Śląska
(50.9128°N, 16.4318°E)
Time: 14:03:44
(UTC+01:00)

ISS - Pass Details

Date: 27 January 2019
Orbit: 403 x 411 km, 51.6° (Epoch: 16 February)

Event Time Altitude Azimuth Distance (km) Brightness Sun altitude
Rises 18:22:40 0° 244° (WSW) 2,330 1.5 -16.6°
Reaches altitude 10° 18:24:45 10° 242° (WSW) 1,473 0.1 -16.9°
Maximum altitude 18:28:01 64° 161° (SSE) 460 -3.7 -17.4°
Enters shadow 18:28:34 52° 110° (ESE) 517 -3.7 -17.5°
